FW1757 Weather Reports


time (UTC)temp
C
wind
direction
speed
KPH
gust
KPH
rain 1hr
cm
rain 24hr
cm
rain mn
cm
humidity
%
barometer
mb
20260902162057 16 224 0.0 0.0 0.00 0.00 0.00 70 1006.6
20260902161558 16 224 0.0 0.0 0.00 0.00 0.00 70 1006.8
20260902161058 15 224 0.0 0.0 0.00 0.00 0.00 71 1006.8
20260902160556 15 224 0.0 0.0 0.00 0.00 0.00 71 1006.7
20260902160056 15 224 0.0 0.0 0.00 0.00 0.00 71 1006.8
20260902155555 15 224 0.0 0.0 0.00 0.00 0.00 71 1006.8
20260902155055 15 201 0.0 0.0 0.00 0.00 0.00 72 1006.9
20260902154554 15 199 0.0 0.0 0.00 0.00 0.00 72 1006.8
20260902154054 15 199 0.0 0.0 0.00 0.00 0.00 72 1006.9
20260902153555 15 199 0.0 0.0 0.00 0.00 0.00 72 1007.0
20260902153105 14 199 0.0 0.0 0.00 0.00 0.00 71 1007.1
20260902152558 14 199 0.0 0.0 0.00 0.00 0.00 71 1007.2
20260902152052 14 199 0.0 0.0 0.00 0.00 0.00 70 1007.2
20260902151554 14 199 0.0 0.0 0.00 0.00 0.00 71 1007.1
20260902151055 14 199 0.0 0.0 0.00 0.00 0.00 71 1007.2
20260902150551 13 199 0.0 0.0 0.00 0.00 0.00 70 1007.2
20260902150051 13 199 0.0 0.0 0.00 0.00 0.00 70 1007.4
20260902145550 13 199 0.0 0.0 0.00 0.00 0.00 69 1007.4
20260902145053 13 199 0.0 0.0 0.00 0.00 0.00 69 1007.4
20260902144550 13 199 0.0 0.0 0.00 0.00 0.00 70 1007.4
20260902144050 13 199 0.0 0.0 0.00 0.00 0.00 70 1007.3
20260902143550 13 199 0.0 0.0 0.00 0.00 0.00 70 1007.4
20260902143052 13 199 0.0 0.0 0.00 0.00 0.00 70 1007.6
20260902142549 13 199 0.0 0.0 0.00 0.00 0.00 71 1007.6
20260902142049 13 199 0.0 0.0 0.00 0.00 0.00 71 1007.6
20260902141549 13 199 0.0 0.0 0.00 0.00 0.00 71 1007.6
20260902141048 13 199 0.0 0.0 0.00 0.00 0.00 71 1007.5
20260902140549 13 199 0.0 0.0 0.00 0.00 0.00 71 1007.6
20260902140051 13 199 0.0 0.0 0.00 0.00 0.00 72 1007.7
20260902135548 13 199 0.0 0.0 0.00 0.00 0.00 72 1007.7
20260902135047 13 199 0.0 0.0 0.00 0.00 0.00 72 1007.6
20260902134548 13 199 0.0 0.0 0.00 0.00 0.00 72 1007.5
20260902134046 13 199 0.0 0.0 0.00 0.00 0.00 72 1007.4
20260902133545 13 197 0.0 0.0 0.00 0.00 0.00 72 1007.7
20260902133044 13 198 0.0 0.0 0.00 0.00 0.00 72 1007.7
20260902132543 13 198 0.0 0.0 0.00 0.00 0.00 72 1007.8
20260902132043 13 198 0.0 0.0 0.00 0.00 0.00 72 1007.9
20260902131543 13 198 0.0 0.0 0.00 0.00 0.00 72 1007.9
20260902131043 13 194 0.0 0.0 0.00 0.00 0.00 72 1007.9
20260902130543 13 183 0.0 0.0 0.00 0.00 0.00 72 1008.0
20260902130043 13 186 0.0 0.0 0.00 0.00 0.00 72 1007.9
20260902125542 13 188 0.0 0.0 0.00 0.00 0.00 72 1008.0
20260902125141 13 215 0.0 0.0 0.00 0.00 0.00 72 1008.0
20260902124541 13 149 0.0 0.0 0.00 0.00 0.00 72 1007.9
20260902124041 13 145 0.0 0.0 0.00 0.00 0.00 72 1007.9
20260902123539 13 150 0.0 0.0 0.00 0.00 0.00 72 1007.9
20260902123039 14 148 0.0 0.0 0.00 0.00 0.00 71 1008.0
20260902122539 14 221 0.0 0.0 0.00 0.00 0.00 72 1008.0
20260902122037 14 221 0.0 0.0 0.00 0.00 0.00 71 1008.0
20260902121539 14 221 0.0 0.0 0.00 0.00 0.00 71 1007.8
20260902121037 14 221 0.0 0.0 0.00 0.00 0.00 71 1007.9
20260902120537 14 221 0.0 0.0 0.00 0.00 0.00 71 1007.9
20260902120036 14 234 0.0 0.0 0.00 0.00 0.00 71 1008.0
20260902115535 14 242 0.0 0.0 0.00 0.00 0.00 71 1008.0
20260902115035 14 227 0.0 0.0 0.00 0.00 0.00 71 1008.1
20260902114535 15 222 0.0 0.0 0.00 0.00 0.00 71 1008.0
20260902114034 15 222 0.0 0.0 0.00 0.00 0.00 71 1008.1
20260902113533 15 222 0.0 0.0 0.00 0.00 0.00 71 1008.0
20260902113034 15 222 0.0 0.0 0.00 0.00 0.00 71 1008.0
20260902112533 15 259 0.0 0.0 0.00 0.00 0.00 71 1008.1
20260902112033 15 259 0.0 0.0 0.00 0.00 0.00 71 1008.1
20260902111533 15 260 0.0 0.0 0.00 0.00 0.00 71 1008.1
20260902111158 15 263 0.0 0.0 0.00 0.00 0.00 71 1008.0
20260902110534 15 296 0.0 0.0 0.00 0.00 0.00 71 1008.1
20260902110044 15 296 0.0 0.0 0.00 0.00 0.00 71 1008.0
20260902105532 15 266 0.0 0.0 0.00 0.00 0.00 71 1008.0
20260902105032 15 263 0.0 0.0 0.00 0.00 0.00 71 1008.1
20260902104550 15 288 0.0 0.0 0.00 0.00 0.00 72 1007.9
20260902104030 15 267 0.0 0.0 0.00 0.00 0.00 72 1007.9
20260902103529 15 273 0.0 0.0 0.00 0.00 0.00 71 1008.1
20260902103046 15 264 0.0 0.0 0.00 0.00 0.00 71 1008.2
20260902102530 15 248 0.0 0.0 0.00 0.00 0.00 71 1008.1
20260902102029 15 213 0.0 0.0 0.00 0.00 0.00 71 1008.2
20260902101528 15 223 0.0 0.0 0.00 0.00 0.00 71 1008.2
20260902101030 15 271 0.0 0.0 0.00 0.00 0.00 71 1008.2
20260902100528 15 263 0.0 0.0 0.00 0.00 0.00 71 1008.2
20260902100028 15 196 0.0 0.0 0.00 0.00 0.00 71 1008.3
20260902095528 15 252 0.0 0.0 0.00 0.00 0.00 71 1008.3
20260902095027 15 277 0.0 0.0 0.00 0.00 0.00 71 1008.3
20260902094528 15 254 0.0 0.0 0.00 0.00 0.00 71 1008.2
20260902094027 15 267 0.0 0.0 0.00 0.00 0.00 71 1008.3
20260902093527 15 272 0.0 0.0 0.00 0.00 0.00 71 1008.1
20260902093026 15 293 0.0 0.0 0.00 0.00 0.00 71 1008.3
20260902092528 15 298 0.0 0.0 0.00 0.00 0.00 71 1008.4
20260902092026 15 251 0.0 0.0 0.00 0.00 0.00 71 1008.4
20260902091527 15 263 0.0 0.0 0.00 0.00 0.00 71 1008.3
20260902091026 15 268 0.0 0.0 0.00 0.00 0.00 71 1008.4
20260902090525 15 286 0.0 0.0 0.00 0.00 0.00 71 1008.4
20260902090029 15 288 0.0 0.0 0.00 0.00 0.00 71 1008.4
20260902085528 15 281 0.0 0.0 0.00 0.00 0.00 71 1008.4
20260902085024 15 290 0.0 0.0 0.00 0.00 0.00 71 1008.3
20260902084534 15 262 0.0 0.0 0.00 0.00 0.00 71 1008.4
20260902084027 15 248 0.0 0.0 0.00 0.00 0.00 71 1008.4
20260902083528 15 306 0.0 0.0 0.00 0.00 0.00 71 1008.4
20260902083023 15 299 0.0 0.0 0.00 0.00 0.00 71 1008.3
20260902082524 15 286 0.0 0.0 0.00 0.00 0.00 71 1008.4
20260902082022 15 283 0.0 0.0 0.00 0.00 0.00 71 1008.4
20260902081523 15 272 0.0 0.0 0.00 0.00 0.00 71 1008.4
20260902081023 15 271 0.0 0.0 0.00 0.00 0.00 71 1008.3
20260902080522 15 259 0.0 0.0 0.00 0.00 0.00 71 1008.3
20260902080023 15 259 0.0 0.0 0.00 0.00 0.00 70 1008.3
20260902075520 15 243 0.0 0.0 0.00 0.00 0.00 71 1008.4
20260902075020 15 253 0.0 0.0 0.00 0.00 0.00 71 1008.5
20260902074520 16 229 0.0 0.0 0.00 0.00 0.00 71 1008.6
20260902074019 16 295 0.0 0.0 0.00 0.00 0.00 70 1008.7
20260902073520 16 282 0.0 0.0 0.00 0.00 0.00 70 1008.5
20260902073018 16 281 0.0 0.0 0.00 0.00 0.00 70 1008.5
20260902072518 16 293 0.0 0.0 0.00 0.00 0.00 70 1008.5
20260902072017 16 286 0.0 0.0 0.00 0.00 0.00 70 1008.4
20260902071517 16 270 0.0 0.0 0.00 0.00 0.00 70 1008.6
20260902071016 16 292 0.0 0.0 0.00 0.00 0.00 69 1008.7
20260902070514 16 302 0.0 0.0 0.00 0.00 0.00 69 1008.7
20260902070022 16 300 0.0 0.0 0.00 0.00 0.00 69 1008.6
20260902065513 16 317 0.0 0.0 0.00 0.00 0.00 69 1008.4
20260902065015 16 298 0.0 0.0 0.00 0.00 0.00 69 1008.6
20260902064514 16 301 0.0 0.0 0.00 0.00 0.00 68 1008.5
20260902064012 16 287 0.0 0.0 0.00 0.00 0.00 68 1008.6
20260902063513 16 304 0.0 0.0 0.00 0.00 0.00 68 1008.8
20260902063035 17 290 0.0 0.0 0.00 0.00 0.00 68 1008.8
20260902062513 17 248 0.0 0.0 0.00 0.00 0.00 68 1008.6
20260902062012 17 254 0.0 0.0 0.00 0.00 0.00 68 1008.6
20260902061512 17 284 0.0 0.0 0.00 0.00 0.00 67 1008.5
20260902061012 17 275 0.0 0.0 0.00 0.00 0.00 67 1008.5
20260902060512 17 290 0.0 0.0 0.00 0.00 0.00 67 1008.6
20260902060012 17 275 0.0 0.0 0.00 0.00 0.00 67 1008.7
20260902055511 17 286 0.0 0.0 0.00 0.00 0.00 67 1008.5
20260902055011 17 280 0.0 0.0 0.00 0.00 0.00 67 1008.7
20260902054513 17 287 0.0 0.0 0.00 0.00 0.00 67 1008.9
20260902054011 17 212 0.0 0.0 0.00 0.00 0.00 67 1008.6
20260902053511 17 269 0.0 0.0 0.00 0.00 0.00 67 1008.4
20260902053011 17 299 0.0 0.0 0.00 0.00 0.00 67 1008.5
20260902052510 17 246 0.0 0.0 0.00 0.00 0.00 67 1008.5
20260902052010 17 312 0.0 0.0 0.00 0.00 0.00 67 1008.5
20260902051511 17 275 0.0 0.0 0.00 0.00 0.00 66 1008.6
20260902051011 17 269 0.0 0.0 0.00 0.00 0.00 66 1008.6
20260902050511 17 279 0.0 0.0 0.00 0.00 0.00 66 1008.9
20260902050012 17 239 0.0 0.0 0.00 0.00 0.00 66 1008.7
20260902045508 17 286 0.0 0.0 0.00 0.00 0.00 65 1008.6
20260902045008 17 292 0.0 0.0 0.00 0.00 0.00 65 1008.6
20260902044508 17 255 0.0 0.0 0.00 0.00 0.00 65 1008.4
20260902044008 17 285 0.0 0.0 0.00 0.00 0.00 64 1008.3
20260902043507 17 322 0.0 0.0 0.00 0.00 0.00 64 1008.3
20260902043007 17 286 0.0 0.0 0.00 0.00 0.00 64 1008.3
20260902042508 17 259 0.0 0.0 0.00 0.00 0.00 64 1008.3
20260902042007 17 302 0.0 0.0 0.00 0.00 0.00 64 1008.3
20260902041505 17 279 0.0 0.0 0.00 0.00 0.00 64 1008.1
20260902041005 17 282 0.0 0.0 0.00 0.00 0.00 64 1007.9
20260902040505 17 317 0.0 0.0 0.00 0.00 0.00 64 1007.8
20260902040005 17 286 0.0 0.0 0.00 0.00 0.00 64 1007.7
20260902035504 17 294 0.0 0.0 0.00 0.00 0.00 64 1007.9
20260902035004 17 298 0.0 0.0 0.00 0.00 0.00 65 1007.8
20260902034505 17 248 0.0 0.0 0.00 0.00 0.00 65 1007.6
20260902034004 17 261 0.0 0.0 0.00 0.00 0.00 65 1007.7
20260902033504 17 257 0.0 0.0 0.00 0.00 0.00 65 1007.6
20260902033004 17 311 0.0 0.0 0.00 0.00 0.00 65 1007.4
20260902032506 17 318 0.0 0.0 0.00 0.00 0.00 65 1007.5
20260902032003 17 283 0.0 0.0 0.00 0.00 0.00 65 1007.6
20260902031515 17 300 0.0 0.0 0.00 0.00 0.00 65 1007.6
20260902031003 17 288 0.0 0.0 0.00 0.00 0.00 64 1007.6
20260902030507 17 288 0.0 0.0 0.00 0.00 0.00 64 1007.6
20260902030004 18 273 0.0 0.0 0.00 0.00 0.00 64 1007.8
20260902025604 18 278 0.0 0.0 0.00 0.00 0.00 64 1007.7
20260902025002 18 275 0.0 0.0 0.00 0.00 0.00 64 1007.5
20260902024502 18 269 0.0 0.0 0.00 0.00 0.00 64 1007.4
20260902024001 18 308 0.0 0.0 0.00 0.00 0.00 63 1007.4
20260902023501 18 277 0.0 0.0 0.00 0.00 0.00 63 1007.3
20260902023008 18 267 0.0 0.0 0.00 0.00 0.00 63 1007.1
20260902022502 18 271 0.0 0.0 0.00 0.00 0.00 63 1007.0
20260902022004 18 292 0.0 0.0 0.00 0.00 0.00 63 1007.0
20260902021504 18 281 0.0 0.0 0.00 0.00 0.00 63 1006.9
20260902021001 18 308 0.0 0.0 0.00 0.00 0.00 63 1007.3
20260902020501 18 273 0.0 0.0 0.00 0.00 0.00 63 1007.0
20260902020001 18 322 0.0 0.0 0.00 0.00 0.00 62 1007.1
20260902015603 18 296 0.0 0.0 0.00 0.00 0.00 62 1006.9
20260902015101 18 244 0.0 0.0 0.00 0.00 0.00 61 1007.0
20260902014600 18 261 0.0 0.0 0.00 0.00 0.00 60 1006.9
20260902014059 18 252 0.0 0.0 0.00 0.00 0.00 60 1006.8
20260902013600 19 288 0.0 0.0 0.00 0.00 0.00 59 1006.7
20260902013110 19 317 0.0 0.0 0.00 0.00 0.00 59 1006.7
20260902012600 19 250 0.0 0.0 0.00 0.00 0.00 58 1006.7
20260902012059 19 289 0.0 0.0 0.00 0.00 0.00 58 1006.7
20260902011559 20 285 0.0 0.0 0.00 0.00 0.00 59 1006.7
20260902011059 19 293 0.0 0.0 0.00 0.00 0.00 59 1006.9
20260902010601 19 277 0.0 0.0 0.00 0.00 0.00 59 1006.7
20260902010500 19 262 0.0 0.0 0.00 0.00 0.00 59 1006.8
20260902010105 19 278 0.0 0.0 0.00 0.00 0.00 59 1006.6
20260902005558 19 285 0.0 0.0 0.00 0.00 0.00 59 1006.6
20260902005058 19 305 0.0 0.0 0.00 0.00 0.00 59 1006.5
20260902004558 19 300 0.0 0.0 0.00 0.00 0.00 59 1006.6
20260902004059 19 318 0.0 0.0 0.00 0.00 0.00 59 1006.6
20260902003557 20 296 0.0 0.0 0.00 0.00 0.00 59 1006.6
20260902003057 20 275 0.0 0.0 0.00 0.00 0.00 59 1006.4
20260902002558 20 288 0.0 0.0 0.00 0.00 0.00 59 1006.4
20260902002056 20 263 0.0 0.0 0.00 0.00 0.00 60 1006.5
20260902001602 19 304 0.0 0.0 0.00 0.00 0.00 60 1006.4
20260902001056 19 319 0.0 0.0 0.00 0.00 0.00 61 1006.3
20260902000556 19 293 0.0 0.0 0.00 0.00 0.00 61 1006.4
20260902000057 19 254 0.0 0.0 0.00 0.00 0.00 61 1006.4
20260901235557 19 292 0.0 0.0 0.00 0.00 0.00 60 1006.5
20260901235056 19 269 0.0 0.0 0.00 0.00 0.00 59 1006.5
20260901234657 19 319 0.0 0.0 0.00 0.00 0.00 60 1006.4
20260901234057 19 279 0.0 0.0 0.00 0.00 0.00 60 1006.5
20260901233555 19 282 0.0 0.0 0.00 0.00 0.00 60 1006.6
20260901233055 19 274 0.0 0.0 0.00 0.00 0.00 60 1006.6
20260901232555 19 279 0.0 0.0 0.00 0.00 0.00 60 1006.6
20260901232057 20 271 0.0 0.0 0.00 0.00 0.00 59 1006.7
20260901231604 20 247 0.0 0.0 0.00 0.00 0.00 58 1006.7
20260901231054 20 306 0.0 0.0 0.00 0.00 0.00 58 1006.6
20260901230554 20 288 0.0 0.0 0.00 0.00 0.00 59 1006.6
20260901230107 20 300 0.0 0.0 0.00 0.00 0.00 59 1006.6
20260901225554 20 288 0.0 0.0 0.00 0.00 0.00 59 1006.6
20260901225053 20 232 0.0 0.0 0.00 0.00 0.00 59 1006.7
20260901224554 20 295 0.0 0.0 0.00 0.00 0.00 59 1006.5
20260901224058 20 221 0.0 0.0 0.00 0.00 0.00 59 1006.6
20260901223559 20 290 0.0 0.0 0.00 0.00 0.00 58 1006.5
20260901223053 20 277 0.0 0.0 0.00 0.00 0.00 57 1006.6
20260901222555 20 279 0.0 0.0 0.00 0.00 0.00 57 1006.7
20260901222052 21 294 0.0 0.0 0.00 0.00 0.00 56 1006.7
20260901221606 21 286 0.0 0.0 0.00 0.00 0.00 55 1006.6
20260901221053 21 264 0.0 0.0 0.00 0.00 0.00 55 1006.5
20260901220555 21 283 0.0 0.0 0.00 0.00 0.00 54 1006.6
20260901220052 21 288 0.0 0.0 0.00 0.00 0.00 55 1006.4
20260901215552 21 232 0.0 0.0 0.00 0.00 0.00 55 1006.5
20260901215051 21 262 0.0 0.0 0.00 0.00 0.00 55 1006.5
20260901214551 21 321 0.0 0.0 0.00 0.00 0.00 56 1006.5
20260901214052 21 303 0.0 0.0 0.00 0.00 0.00 56 1006.5
20260901213551 21 291 0.0 0.0 0.00 0.00 0.00 56 1006.5
20260901213053 21 294 0.0 0.0 0.00 0.00 0.00 57 1006.5
20260901212548 20 300 0.0 0.0 0.00 0.00 0.00 57 1006.6
20260901212049 20 275 0.0 0.0 0.00 0.00 0.00 57 1006.8
20260901211549 20 265 0.0 0.0 0.00 0.00 0.00 57 1006.6
20260901211049 20 267 0.0 0.0 0.00 0.00 0.00 57 1006.6
20260901210551 20 280 0.0 0.0 0.00 0.00 0.00 57 1006.7
20260901210048 20 252 0.0 0.0 0.00 0.00 0.00 57 1006.6
20260901205548 20 300 0.0 0.0 0.00 0.00 0.00 58 1006.6
20260901205047 20 302 0.0 0.0 0.00 0.00 0.00 57 1006.6
20260901204546 20 277 0.0 0.0 0.00 0.00 0.00 57 1006.7
20260901204046 20 314 0.0 0.0 0.00 0.00 0.00 57 1006.8
20260901203548 20 292 0.0 0.0 0.00 0.00 0.00 57 1006.8
20260901203054 20 248 0.0 0.0 0.00 0.00 0.00 57 1006.9
20260901202545 20 272 0.0 0.0 0.00 0.00 0.00 58 1006.9
20260901202045 20 207 0.0 0.0 0.00 0.00 0.00 57 1006.9
20260901201550 20 243 0.0 0.0 0.00 0.00 0.00 56 1007.0
20260901201046 21 305 0.0 0.0 0.00 0.00 0.00 56 1006.9
20260901200545 21 297 0.0 0.0 0.00 0.00 0.00 56 1006.8
20260901200044 20 290 0.0 0.0 0.00 0.00 0.00 56 1006.9
20260901195544 20 311 0.0 0.0 0.00 0.00 0.00 57 1006.9
20260901195042 20 313 0.0 0.0 0.00 0.00 0.00 58 1007.0
20260901194543 20 292 0.0 0.0 0.00 0.00 0.00 56 1007.1
20260901194042 20 284 0.0 0.0 0.00 0.00 0.00 57 1007.1
20260901193540 20 297 0.0 0.0 0.00 0.00 0.00 58 1007.3
20260901193039 20 313 0.0 0.0 0.00 0.00 0.00 58 1007.5
20260901192538 20 280 0.0 0.0 0.00 0.00 0.00 58 1007.5
20260901192038 20 303 0.0 0.0 0.00 0.00 0.00 59 1007.7
20260901191542 19 287 0.0 0.0 0.00 0.00 0.00 59 1007.7
20260901191039 19 246 0.0 0.0 0.00 0.00 0.00 59 1007.8
20260901190537 19 308 0.0 0.0 0.00 0.00 0.00 59 1007.9
20260901190039 19 286 0.0 0.0 0.00 0.00 0.00 60 1007.8
20260901185536 19 300 0.0 0.0 0.00 0.00 0.00 60 1007.8
20260901185036 19 267 0.0 0.0 0.00 0.00 0.00 61 1007.9
20260901184534 18 292 0.0 0.0 0.00 0.00 0.00 61 1007.8
20260901184034 18 284 0.0 0.0 0.00 0.00 0.00 61 1007.9
20260901183537 18 279 0.0 0.0 0.00 0.00 0.00 62 1007.9
20260901183056 18 291 0.0 0.0 0.00 0.00 0.00 62 1007.9
20260901182533 18 264 0.0 0.0 0.00 0.00 0.00 63 1007.9
20260901182034 18 289 0.0 0.0 0.00 0.00 0.00 63 1007.9
20260901181534 18 278 0.0 0.0 0.00 0.00 0.00 63 1007.9
20260901181034 18 288 0.0 0.0 0.00 0.00 0.00 63 1008.0
20260901180533 18 246 0.0 0.0 0.00 0.00 0.00 64 1008.1
20260901180033 18 268 0.0 0.0 0.00 0.00 0.00 65 1008.0
20260901175533 17 250 0.0 0.0 0.00 0.00 0.00 66 1008.0
20260901175032 17 290 0.0 0.0 0.00 0.00 0.00 65 1008.1
20260901174532 17 298 0.0 0.0 0.00 0.00 0.00 66 1008.0
20260901174031 17 284 0.0 0.0 0.00 0.00 0.00 66 1008.0
20260901173531 17 265 0.0 0.0 0.00 0.00 0.00 67 1007.8
20260901173031 17 258 0.0 0.0 0.00 0.00 0.00 67 1007.9
20260901172533 17 298 0.0 0.0 0.00 0.00 0.00 67 1007.9
20260901172031 17 252 0.0 0.0 0.00 0.00 0.00 68 1007.9
20260901171546 16 275 0.0 0.0 0.00 0.00 0.00 68 1008.0
20260901171034 16 271 0.0 0.0 0.00 0.00 0.00 68 1007.9
20260901170530 16 286 0.0 0.0 0.00 0.00 0.00 68 1007.8
20260901170043 16 289 0.0 0.0 0.00 0.00 0.00 69 1007.9
20260901165530 16 294 0.0 0.0 0.00 0.00 0.00 68 1007.9
20260901165031 16 321 0.0 0.0 0.00 0.00 0.00 69 1007.8
20260901164530 16 263 0.0 0.0 0.00 0.00 0.00 69 1007.9
20260901164030 16 286 0.0 0.0 0.00 0.00 0.00 69 1008.0
20260901163529 16 228 0.0 0.0 0.00 0.00 0.00 70 1007.9
20260901163038 16 315 0.0 0.0 0.00 0.00 0.00 70 1008.0
20260901162529 16 293 0.0 0.0 0.00 0.00 0.00 70 1007.9